This is the latest recevied weather packets stored in our database for station/object CX5ACA-13. If no packets are shown the sender has not sent any weather packets the latest 10 day(s).
| Time | Temp. | Humidity | Pressure | Rain* | Wind** | Luminosity | Snow |
|---|---|---|---|---|---|---|---|
| 1777773038 | 15° C | 66% | 1025.7 hPa | 0 mm | - | 0 W/m² | - |
| 1777772734 | 15° C | 65% | 1025.8 hPa | 0 mm | - | 0 W/m² | - |
| 1777772432 | 15° C | 66% | 1025.9 hPa | 0 mm | - | 0 W/m² | - |
| 1777772129 | 15° C | 67% | 1025.8 hPa | 0 mm | - | 0 W/m² | - |
| 1777771827 | 15° C | 66% | 1025.7 hPa | 0 mm | - | 0 W/m² | - |
| 1777771524 | 15° C | 66% | 1025.7 hPa | 0 mm | - | 0 W/m² | - |
| 1777771220 | 15° C | 66% | 1025.8 hPa | 0 mm | - | 0 W/m² | - |
| 1777770917 | 15° C | 66% | 1025.8 hPa | 0 mm | - | 0 W/m² | - |
| 1777770615 | 15° C | 67% | 1025.8 hPa | 0 mm | - | 0 W/m² | - |
| 1777770310 | 15° C | 67% | 1025.8 hPa | 0 mm | - | 0 W/m² | - |
| 1777770009 | 15.56° C | 65% | 1025.9 hPa | 0 mm | - | 0 W/m² | - |
| 1777769705 | 15.56° C | 61% | 1025.8 hPa | 0 mm | - | 0 W/m² | - |
| 1777769402 | 15.56° C | 62% | 1025.8 hPa | 0 mm | - | 0 W/m² | - |
| 1777769098 | 15.56° C | 61% | 1026 hPa | 0 mm | - | 0 W/m² | - |
| 1777768796 | 15.56° C | 63% | 1025.6 hPa | 0 mm | - | 0 W/m² | - |
| 1777768493 | 15.56° C | 62% | 1025.7 hPa | 0 mm | - | 0 W/m² | - |
| 1777768190 | 15.56° C | 63% | 1025.7 hPa | 0 mm | - | 0 W/m² | - |
| 1777767887 | 15.56° C | 62% | 1025.7 hPa | 0 mm | - | 0 W/m² | - |
| 1777767583 | 15.56° C | 64% | 1025.8 hPa | 0 mm | - | 0 W/m² | - |
| 1777767280 | 15.56° C | 63% | 1025.6 hPa | 0 mm | - | 0 W/m² | - |
| 1777766978 | 15.56° C | 63% | 1025.6 hPa | 0 mm | - | 0 W/m² | - |
| 1777766674 | 15.56° C | 63% | 1025.7 hPa | 0 mm | - | 0 W/m² | - |
| 1777766372 | 15.56° C | 63% | 1025.5 hPa | 0 mm | - | 0 W/m² | - |
| 1777766068 | 15.56° C | 61% | 1025.6 hPa | 0 mm | - | 0 W/m² | - |
| 1777765766 | 15.56° C | 61% | 1025.6 hPa | 0 mm | - | 0 W/m² | - |
* Rain latest hour (hover to see other rain measurements)
** Current wind speed in m/s (hover to see current wind gust speed)